Regional Weather Roundup
Issued by NWS

Home | Current Version | Previous Version | Graphics & Text | Print | Product List | Glossary On
Versions: 1 2 3 4 5 6 7 8 9 10 11 12 13 14 15 16 17 18 19 20 21 22 23 24 25 26 27 28 29 30 31 32 33 34 35 36 37 38 39 40 41 42 43 44 45 46 47 48 49 50
000
ASUS45 KSLC 220710
RWRUT

UTAH REGIONAL WEATHER ROUNDUP
NATIONAL WEATHER SERVICE SALT LAKE CITY UT
1200 AM MST MON DEC 22 2014

UTZ001>011-023>025-220800-

NORTHERN UTAH

CITY           SKY/WX    TMP DP  RH WIND       PRES   REMARKS
BRIGHAM CITY   CLOUDY    42  32  68 W6        30.03R
HILL AFB       CLOUDY    40  34  76 W6        30.03S
LOGAN          CLOUDY    40  31  70 CALM      30.01R
OGDEN          CLOUDY    42  34  73 W6        30.02F
PROVO AIRPORT  CLOUDY    43  37  81 NW5       30.05S
SALT LAKE CITY CLOUDY    43  37  79 W3        30.04S
VERNAL         PTCLDY    32  29  88 VRB5      29.86R WCI  27
WENDOVER       PTCLDY    50  34  53 NW26G39   30.01S
HEBER CITY     CLOUDY    37  34  87 SE7       29.98S WCI  32
WEST JORDAN    CLOUDY    41  39  93 N6        30.05R

$$

UTZ012>022-026-027-220800-

SOUTHERN/CENTRAL UTAH

CITY           SKY/WX    TMP DP  RH WIND       PRES   REMARKS
BLANDING       PTCLDY    32  31  95 CALM      30.04S
BRYCE CANYON   PTCLDY    36  30  79 NE3       30.09F
CEDAR CITY     PTCLDY    40  33  76 SE8       30.07F WCI  34
DELTA          CLOUDY    43  38  83 N8        30.06R
MILFORD        MOCLDY    36  32  85 SW5       30.05F WCI  32
MOAB/CYNLANDS  PTCLDY    31  29  92 CALM      29.95R
PRICE          CLOUDY    42  33  70 W15       29.94R
ST GEORGE      CLOUDY    43  34  70 N3        30.09S
KANAB          CLEAR     32  32 100 E6        30.13R WCI  26

$$

REGIONAL REPORTS     COLORADO/ARIZONA

CITY           SKY/WX    TMP DP  RH WIND       PRES   REMARKS
CRAIG, CO      FLURRIES  36  28  73 NW23G32   29.83F WCI  24
GRAND JUNCTION CLOUDY    32  32 100 SE8       29.90S WCI  25
RIFLE          CLOUDY    35  32  88 W18       29.82F WCI  24
MONTROSE       FOG       30  30 100 E3        29.91F VSB 1
CORTEZ         CLEAR     31  28  89 NE9       29.98R WCI  23
PAGE, AZ       PTCLDY    38  31  76 CALM      30.02S
GRAND CANYON   PTCLDY    31  29  92 CALM      30.14S
KINGMAN        CLEAR     37  33  85 SW3       30.11R
FLAGSTAFF      MOCLDY    43  31  62 VRB5      30.12S

$$

REGIONAL REPORTS    NEVADA/IDAHO/WYOMING

CITY           SKY/WX    TMP DP  RH WIND       PRES   REMARKS
LAS VEGAS, NV  CLOUDY    49  39  68 S5        30.04F
ELY            CLOUDY    45  38  76 NW5       30.18S
ELKO           CLOUDY    46  43  89 W16       30.13S
POCATELLO, ID  CLOUDY    36  34  92 SW21      30.00F WCI  25
BURLEY         LGT RAIN  36  32  85 W21G29    30.00F WCI  25
EVANSTON, WY   CLOUDY    32  26  78 W15       29.97S WCI  22
ROCK SPRINGS   PTCLDY    30  25  81 W21G29    29.85R WCI  17
KEMMERER       CLOUDY    30  28  93 W20       29.90S WCI  18

$$



USA.gov is the U.S. government's official web portal to all federal, state and local government web resources and services.